sat.trackr.live / text

‹ back to catalog

STARLINK-11161 [DTC]

NORAD 60124 · 2024-118M

PAYLOAD ACTIVE UNKNOWN

§ Identity

Operator
Country
US
Launch date
2024-06-24
Launch site
AFWTR
Launch vehicle
Mass (kg)
RCS (m²)

Purposes: comms

External: N2YO · Heavens-Above · Gunter

§ Orbital elements

Epoch: 2026-05-25T04:34:47.171136Z

Period
91.74 min
Inclination
53.1587°
Eccentricity
0.0000881
Mean motion
15.69717104 rev/d
Perigee alt
359.1 km
Apogee alt
360.3 km
Semi-major
6,737.8 km
B*
2.6643e-5
RAAN
204.5056°
Arg perigee
73.3020°
Mean anomaly
286.8094°
Rev number
11,000

§ Raw data

STARLINK-11161 [DTC]1 60124U 24118M   26145.19082374  .00002641  00000+0  26643-4 0  99982 60124  53.1587 204.5056 0000881  73.3020 286.8094 15.69717104110008

JSON: /api/v1/satellites/60124 · /tle

For live sub-satellite position, see the globe view (requires WebGL).

§ Visibility from observer

Set your observer location to see the next 7 days of passes ≥ 10°. The values pass through the URL so the page stays shareable.

No JS? Fill the form by hand. The geolocation button needs JavaScript.